Hourly Weather Zarafshon

Today, 1 December, Tuesday

Time Temperature Precipitation Wind Pressure Humidity
00:00 -5°C° 0 mm 6 mps 730 mmHg 48%
01:00 -5°C° 0 mm 5 mps 730 mmHg 48%
02:00 -5°C° 0 mm 5 mps 730 mmHg 49%
03:00 -5°C° 0 mm 5 mps 730 mmHg 51%
04:00 -4°C° 0 mm 4 mps 730 mmHg 52%
05:00 -4°C° 0 mm 4 mps 730 mmHg 52%
06:00 -4°C° 0 mm 4 mps 729 mmHg 53%
07:00 -4°C° 0 mm 4 mps 729 mmHg 54%
08:00 -3°C° 0 mm 4 mps 730 mmHg 50%
09:00 -1°C° 0 mm 3 mps 730 mmHg 46%
10:00 0°C° 0 mm 3 mps 730 mmHg 42%
11:00 +1°C° 0 mm 3 mps 730 mmHg 40%
12:00 +3°C° 0 mm 2 mps 730 mmHg 38%
13:00 +4°C° 0 mm 2 mps 730 mmHg 36%
14:00 +3°C° 0 mm 2 mps 730 mmHg 38%
15:00 +3°C° 0 mm 2 mps 730 mmHg 39%
16:00 +2°C° 0 mm 2 mps 730 mmHg 41%
17:00 +2°C° 0 mm 2 mps 730 mmHg 44%
18:00 +1°C° 0 mm 2 mps 730 mmHg 46%
19:00 -1°C° 0 mm 2 mps 730 mmHg 49%
20:00 -1°C° 0 mm 2 mps 730 mmHg 51%
21:00 -2°C° 0 mm 2 mps 730 mmHg 53%
22:00 -2°C° 0 mm 2 mps 730 mmHg 55%
23:00 0°C° 0 mm 1 mps 730 mmHg 56%

Tomorrow, 2 December, Wednesday

Time Temperature Precipitation Wind Pressure Humidity
00:00 -1°C° 0 mm 1 mps 730 mmHg 57%
01:00 -1°C° 0 mm 1 mps 730 mmHg 58%
02:00 -1°C° 0 mm 1 mps 730 mmHg 60%
03:00 -1°C° 0 mm 1 mps 730 mmHg 61%
04:00 -1°C° 0 mm 1 mps 730 mmHg 63%
05:00 -1°C° 0 mm 1 mps 730 mmHg 64%
06:00 -2°C° 0 mm 1 mps 730 mmHg 66%
07:00 -2°C° 0 mm 1 mps 730 mmHg 67%
08:00 0°C° 0 mm 1 mps 730 mmHg 60%
09:00 +2°C° 0 mm 1 mps 731 mmHg 53%
10:00 +4°C° 0 mm 1 mps 731 mmHg 46%
11:00 +5°C° 0 mm 1 mps 731 mmHg 45%
12:00 +6°C° 0 mm 1 mps 731 mmHg 43%
13:00 +6°C° 0 mm 1 mps 731 mmHg 42%
14:00 +5°C° 0 mm 1 mps 730 mmHg 44%
15:00 +4°C° 0 mm 2 mps 730 mmHg 47%
16:00 +3°C° 0 mm 2 mps 730 mmHg 49%
17:00 +2°C° 0 mm 2 mps 730 mmHg 52%
18:00 +1°C° 0 mm 2 mps 730 mmHg 54%
19:00 -1°C° 0 mm 2 mps 731 mmHg 57%
20:00 0°C° 0 mm 1 mps 730 mmHg 59%
21:00 0°C° 0 mm 1 mps 730 mmHg 61%
22:00 -1°C° 0 mm 1 mps 730 mmHg 63%
23:00 -1°C° 0 mm 1 mps 730 mmHg 64%

Day after tomorrow, 3 December, Thursday

Time Temperature Precipitation Wind Pressure Humidity
00:00 -1°C° 0 mm 1 mps 730 mmHg 65%
01:00 -2°C° 0 mm 1 mps 730 mmHg 66%
02:00 -2°C° 0 mm 1 mps 730 mmHg 67%
03:00 -2°C° 0 mm 1 mps 730 mmHg 67%
04:00 -2°C° 0 mm 1 mps 730 mmHg 68%
05:00 -2°C° 0 mm 1 mps 730 mmHg 67%
06:00 -4°C° 0 mm 2 mps 730 mmHg 66%
07:00 -4°C° 0 mm 2 mps 731 mmHg 64%
08:00 -3°C° 0 mm 2 mps 731 mmHg 59%
09:00 -2°C° 0 mm 2 mps 731 mmHg 53%
10:00 +2°C° 0 mm 1 mps 731 mmHg 47%
11:00 +1°C° 0 mm 2 mps 731 mmHg 44%
12:00 +2°C° 0 mm 2 mps 731 mmHg 41%
13:00 +3°C° 0 mm 2 mps 731 mmHg 38%
14:00 +1°C° 0 mm 3 mps 731 mmHg 39%
15:00 0°C° 0 mm 3 mps 731 mmHg 41%
16:00 0°C° 0 mm 3 mps 731 mmHg 43%
17:00 -1°C° 0 mm 3 mps 731 mmHg 46%
18:00 -2°C° 0 mm 3 mps 731 mmHg 49%
19:00 -4°C° 0 mm 3 mps 731 mmHg 53%
20:00 -4°C° 0 mm 2 mps 731 mmHg 55%
21:00 -4°C° 0 mm 2 mps 731 mmHg 56%
22:00 -5°C° 0 mm 2 mps 731 mmHg 58%
23:00 -5°C° 0 mm 2 mps 731 mmHg 59%

4 December, Friday

Time Temperature Precipitation Wind Pressure Humidity
00:00 -5°C° 0 mm 2 mps 731 mmHg 60%
01:00 -6°C° 0 mm 2 mps 731 mmHg 60%
02:00 -6°C° 0 mm 2 mps 731 mmHg 61%
03:00 -6°C° 0 mm 2 mps 731 mmHg 61%
04:00 -7°C° 0 mm 2 mps 731 mmHg 61%
05:00 -7°C° 0 mm 2 mps 731 mmHg 62%
06:00 -8°C° 0 mm 2 mps 731 mmHg 64%
07:00 -7°C° 0 mm 1 mps 731 mmHg 65%
08:00 -4°C° 0 mm 1 mps 732 mmHg 57%
09:00 -3°C° 0 mm 1 mps 732 mmHg 49%
10:00 -2°C° 0 mm 1 mps 733 mmHg 42%
11:00 -1°C° 0 mm 1 mps 733 mmHg 39%
12:00 -2°C° 0 mm 2 mps 733 mmHg 36%
13:00 -1°C° 0 mm 2 mps 733 mmHg 33%
14:00 -2°C° 0 mm 2 mps 733 mmHg 36%
15:00 -3°C° 0 mm 2 mps 733 mmHg 39%
16:00 -4°C° 0 mm 2 mps 732 mmHg 42%
17:00 -3°C° 0 mm 1 mps 732 mmHg 46%
18:00 -4°C° 0 mm 1 mps 733 mmHg 50%
19:00 -6°C° 0 mm 0 mps 733 mmHg 55%
20:00 -6°C° 0 mm 0 mps 732 mmHg 56%
21:00 -7°C° 0 mm 0 mps 732 mmHg 58%
22:00 -7°C° 0 mm 0 mps 732 mmHg 60%
23:00 -7°C° 0 mm 0 mps 732 mmHg 60%

5 December, Saturday

Time Temperature Precipitation Wind Pressure Humidity
00:00 -7°C° 0 mm 0 mps 732 mmHg 61%
01:00 -8°C° 0 mm 0 mps 731 mmHg 61%
02:00 -8°C° 0 mm 0 mps 731 mmHg 62%
03:00 -8°C° 0 mm 0 mps 731 mmHg 63%
04:00 -8°C° 0 mm 0 mps 731 mmHg 64%
05:00 -8°C° 0 mm 0 mps 731 mmHg 63%
06:00 -8°C° 0 mm 1 mps 731 mmHg 63%
07:00 -8°C° 0 mm 1 mps 731 mmHg 63%
08:00 -6°C° 0 mm 1 mps 731 mmHg 54%
09:00 -4°C° 0 mm 0 mps 731 mmHg 45%
10:00 -2°C° 0 mm 0 mps 732 mmHg 37%
11:00 0°C° 0 mm 1 mps 731 mmHg 36%
12:00 +1°C° 0 mm 1 mps 731 mmHg 35%
13:00 -1°C° 0 mm 2 mps 731 mmHg 34%
14:00 -2°C° 0 mm 2 mps 730 mmHg 41%
15:00 -3°C° 0 mm 2 mps 730 mmHg 47%
16:00 -4°C° 0 mm 2 mps 730 mmHg 53%
17:00 -5°C° 0 mm 2 mps 730 mmHg 58%
18:00 -3°C° 0 mm 1 mps 730 mmHg 62%
19:00 -4°C° 0 mm 1 mps 730 mmHg 67%
20:00 -6°C° 0 mm 1 mps 730 mmHg 68%
21:00 -6°C° 0 mm 1 mps 730 mmHg 69%
22:00 -6°C° 0 mm 1 mps 730 mmHg 71%
23:00 -6°C° 0 mm 1 mps 729 mmHg 71%

6 December, Sunday

Time Temperature Precipitation Wind Pressure Humidity
00:00 -7°C° 0 mm 1 mps 729 mmHg 71%
01:00 -7°C° 0 mm 1 mps 729 mmHg 72%
02:00 -7°C° 0 mm 1 mps 729 mmHg 72%
03:00 -7°C° 0 mm 1 mps 729 mmHg 72%
04:00 -7°C° 0 mm 1 mps 729 mmHg 72%
05:00 -7°C° 0 mm 1 mps 729 mmHg 72%
06:00 -7°C° 0 mm 1 mps 730 mmHg 72%
07:00 -8°C° 0 mm 2 mps 730 mmHg 72%
08:00 -6°C° 0 mm 2 mps 730 mmHg 62%
09:00 -4°C° 0 mm 2 mps 730 mmHg 52%
10:00 -2°C° 0 mm 2 mps 731 mmHg 42%
11:00 -1°C° 0 mm 3 mps 730 mmHg 38%
12:00 0°C° 0 mm 3 mps 730 mmHg 35%
13:00 +1°C° 0 mm 3 mps 730 mmHg 32%
14:00 0°C° 0 mm 3 mps 730 mmHg 36%
15:00 -1°C° 0 mm 3 mps 730 mmHg 40%
16:00 -3°C° 0 mm 4 mps 729 mmHg 45%
17:00 -4°C° 0 mm 3 mps 729 mmHg 48%
18:00 -5°C° 0 mm 3 mps 729 mmHg 51%
19:00 -5°C° 0 mm 3 mps 729 mmHg 55%
20:00 -5°C° 0 mm 3 mps 729 mmHg 56%
21:00 -6°C° 0 mm 3 mps 729 mmHg 57%
22:00 -6°C° 0 mm 3 mps 729 mmHg 58%
23:00 -6°C° 0 mm 3 mps 728 mmHg 58%
Show more